Location: �clusier
(49.9361°N, 2.7869°E)
Time: 18:22:32
(UTC+00:00)

Cosmos 1536 Rocket - Visible Passes

Search period start: 21 October 2021 00:00
Search period end: 31 October 2021 00:00
Orbit: 604 x 633 km, 82.5° (Epoch: 20 October)

Date Brightness Start Highest point End Pass type
(mag) Time Alt. Az. Time Alt. Az. Time Alt. Az.
21 Oct 5.3 05:17:40 10° SSE 05:21:43 37° E 05:25:47 10° NNE visible
22 Oct 4.1 05:34:30 10° S 05:38:52 66° E 05:43:13 10° NNE visible
22 Oct 5.5 17:16:26 10° NNW 17:20:22 34° W 17:24:16 10° SSW visible
23 Oct 6.9 04:16:36 10° ESE 04:18:49 14° E 04:21:03 10° NE visible
23 Oct 3.5 05:51:42 10° SSW 05:56:06 72° WNW 06:00:29 10° N visible
23 Oct 6.5 17:34:11 10° NW 17:37:24 21° W 17:40:36 10° SW visible
24 Oct 6.2 04:32:20 10° SE 04:35:47 23° E 04:39:14 10° NE visible
24 Oct 7.0 17:52:37 10° WNW 17:54:20 12° W 17:56:04 10° WSW visible
25 Oct 5.1 04:48:46 10° SSE 04:52:51 39° E 04:56:54 10° NNE visible
26 Oct 3.9 05:05:38 10° S 05:09:59 68° E 05:14:20 10° NNE visible
27 Oct 6.7 03:47:37 10° ESE 03:49:55 14° E 03:52:14 10° NE visible
27 Oct 3.5 05:22:51 10° SSW 05:27:13 69° WNW 05:31:35 10° N visible
27 Oct 6.5 17:05:21 10° NW 17:08:30 20° W 17:11:39 10° SW visible
28 Oct 5.9 04:03:25 10° SE 04:06:54 24° E 04:10:23 10° NE visible
28 Oct 4.0 05:40:26 10° SW 05:44:33 39° WNW 05:48:40 10° N visible
28 Oct 6.9 17:23:53 10° WNW 17:25:26 12° W 17:27:00 10° WSW visible
29 Oct 4.9 04:19:53 10° SSE 04:23:58 40° E 04:28:02 10° NNE visible
30 Oct 3.8 04:36:46 10° S 04:41:06 71° E 04:45:27 10° NNE visible
